This is the latest recevied weather packets stored in our database for station/object WE0DX-1. If no packets are shown the sender has not sent any weather packets the latest 10 day(s).
| Time | Temp. | Humidity | Pressure | Rain* | Wind** | Luminosity | Snow |
|---|---|---|---|---|---|---|---|
| 1777844574 | 26.67° C | 36% | 1008.6 hPa | 0 mm | - | 50 W/m² | - |
| 1777844272 | 26.67° C | 35% | 1008.4 hPa | 0 mm | - | 64 W/m² | - |
| 1777843363 | 26.67° C | 34% | 1008.6 hPa | 0 mm | - | 66 W/m² | - |
| 1777843061 | 26.67° C | 35% | 1008.5 hPa | 0 mm | - | 78 W/m² | - |
| 1777842757 | 26.67° C | 35% | 1008.6 hPa | 0 mm | - | 264 W/m² | - |
| 1777842452 | 27.22° C | 36% | 1008.9 hPa | 0 mm | - | 451 W/m² | - |
| 1777842150 | 26.67° C | 35% | 1008.9 hPa | 0 mm | - | 475 W/m² | - |
| 1777841845 | 27.22° C | 35% | 1008.8 hPa | 0 mm | - | 445 W/m² | - |
| 1777840633 | 27.22° C | 34% | 1009.4 hPa | 0 mm | - | 603 W/m² | - |
| 1777840331 | 27.22° C | 36% | 1009.4 hPa | 0 mm | - | 596 W/m² | - |
| 1777840028 | 26.67° C | 35% | 1009.3 hPa | 0 mm | - | 619 W/m² | - |
| 1777839725 | 26.67° C | 35% | 1009.5 hPa | 0 mm | - | 626 W/m² | - |
| 1777839423 | 26.67° C | 37% | 1009.2 hPa | 0 mm | - | 608 W/m² | - |
| 1777838811 | 26.67° C | 37% | 1009.4 hPa | 0 mm | - | 619 W/m² | - |
| 1777837294 | 25.56° C | 39% | 1009.9 hPa | 0 mm | - | 652 W/m² | - |
| 1777836686 | 25.56° C | 40% | 1010 hPa | 0 mm | - | 613 W/m² | - |
| 1777836377 | 25.56° C | 40% | 1010.1 hPa | 0 mm | - | 590 W/m² | - |
| 1777835466 | 25.56° C | 40% | 1010.2 hPa | 0 mm | - | 674 W/m² | - |
| 1777835164 | 25° C | 41% | 1010.2 hPa | 0 mm | - | 686 W/m² | - |
| 1777834861 | 25.56° C | 40% | 1010.3 hPa | 0 mm | - | 691 W/m² | - |
| 1777834557 | 24.44° C | 40% | 1010.4 hPa | 0 mm | - | 708 W/m² | - |
| 1777834257 | 25° C | 40% | 1010.5 hPa | 0 mm | - | 748 W/m² | - |
| 1777833346 | 24.44° C | 42% | 1010.6 hPa | 0 mm | - | 718 W/m² | - |
| 1777833043 | 25° C | 41% | 1010.9 hPa | 0 mm | - | 721 W/m² | - |
| 1777830924 | 23.33° C | 42% | 1011.3 hPa | 0 mm | - | 749 W/m² | - |
* Rain latest hour (hover to see other rain measurements)
** Current wind speed in m/s (hover to see current wind gust speed)